TimeMDT,TemperatureF,Dew PointF,Humidity,Sea Level PressureIn,VisibilityMPH,Wind Direction,Wind SpeedMPH,Gust SpeedMPH,PrecipitationIn,Events,Conditions,WindDirDegrees,DateUTC
12:53 AM,69.1,10.9,11,29.56,10.0,WSW,17.3,-,N/A,,Clear,240,2013-05-27 06:53:00
1:53 AM,66.0,19.9,17,29.58,10.0,SW,15.0,-,N/A,,Clear,230,2013-05-27 07:53:00
2:53 AM,66.9,36.0,32,29.56,10.0,West,19.6,-,N/A,,Clear,270,2013-05-27 08:53:00
3:53 AM,63.0,28.9,28,29.59,10.0,West,15.0,-,N/A,,Clear,270,2013-05-27 09:53:00
4:53 AM,61.0,37.9,42,29.60,10.0,West,13.8,-,N/A,,Clear,280,2013-05-27 10:53:00
5:53 AM,62.1,41.0,46,29.62,10.0,West,16.1,-,N/A,,Clear,280,2013-05-27 11:53:00
6:53 AM,66.9,41.0,39,29.63,10.0,WNW,13.8,-,N/A,,Clear,300,2013-05-27 12:53:00
7:53 AM,75.0,37.0,25,29.63,10.0,WNW,13.8,-,N/A,,Clear,300,2013-05-27 13:53:00
8:53 AM,80.1,45.0,29,29.64,10.0,NNW,10.4,-,N/A,,Clear,340,2013-05-27 14:53:00
9:53 AM,81.0,39.9,23,29.61,10.0,West,5.8,-,N/A,,Clear,280,2013-05-27 15:53:00
10:53 AM,84.0,36.0,18,29.60,10.0,WSW,5.8,-,N/A,,Clear,250,2013-05-27 16:53:00
11:53 AM,87.1,28.0,12,29.60,10.0,Variable,5.8,-,N/A,,Clear,0,2013-05-27 17:53:00
12:53 PM,90.0,26.1,10,29.57,10.0,West,8.1,18.4,N/A,,Clear,260,2013-05-27 18:53:00
1:53 PM,88.0,23.0,9,29.57,10.0,SW,9.2,16.1,N/A,,Clear,220,2013-05-27 19:53:00
2:53 PM,89.1,10.0,5,29.54,10.0,West,8.1,-,N/A,,Clear,260,2013-05-27 20:53:00
3:53 PM,88.0,5.0,4,29.52,10.0,Variable,3.5,-,N/A,,Clear,0,2013-05-27 21:53:00
4:53 PM,90.0,1.9,4,29.49,10.0,Calm,Calm,-,N/A,,Clear,0,2013-05-27 22:53:00
5:53 PM,90.0,3.0,4,29.47,10.0,SW,6.9,-,N/A,,Clear,220,2013-05-27 23:53:00
6:53 PM,87.1,6.1,5,29.46,10.0,WSW,5.8,-,N/A,,Clear,250,2013-05-28 00:53:00
7:53 PM,84.9,6.1,5,29.45,10.0,Calm,Calm,-,N/A,,Clear,0,2013-05-28 01:53:00
8:53 PM,77.0,44.1,31,29.49,10.0,East,12.7,-,N/A,,Clear,90,2013-05-28 02:53:00
9:53 PM,72.0,41.0,33,29.52,10.0,East,6.9,-,N/A,,Clear,90,2013-05-28 03:53:00
10:53 PM,69.1,46.9,45,29.54,10.0,NE,17.3,-,N/A,,Clear,50,2013-05-28 04:53:00
11:53 PM,66.9,55.0,66,29.56,10.0,ENE,20.7,29.9,N/A,,Clear,60,2013-05-28 05:53:00